Regional Weather Roundup
Issued by NWS

Home | Current Version | Previous Version | Graphics & Text | Print | Product List | Glossary On
Versions: 1 2 3 4 5 6 7 8 9 10 11 12 13 14 15 16 17 18 19 20 21 22 23 24 25 26 27 28 29 30 31 32 33 34 35 36 37 38 39 40 41 42 43 44 45 46 47 48 49 50
000
ASUS43 KTOP 041259
RWRKS

WEATHER ROUNDUP FOR KANSAS
NATIONAL WEATHER SERVICE GOODLAND KS
800 AM CDT SAT JUL 04 2015

NOTE:  "FAIR" INDICATES FEW OR NO CLOUDS BELOW 12,000 FEET WITH NO
SIGNIFICANT WEATHER AND/OR OBSTRUCTIONS TO VISIBILITY.

KSZ001>006-013>018-027>032-041>047-041400-
NORTHWEST KANSAS

CITY           SKY/WX    TMP DP  RH WIND       PRES   REMARKS
GOODLAND       MOSUNNY   66  61  84 S14       29.99F
HAYS           SUNNY     68  59  73 S7        30.00F
HILL CITY      SUNNY     66  62  87 SE5       30.00S
RUSSELL        PTSUNNY   68  65  90 S9        29.99F
$$

KSZ061>065-074>080-084>089-041400-
SOUTHWEST KANSAS

CITY           SKY/WX    TMP DP  RH WIND       PRES   REMARKS
DODGE CITY     MOSUNNY   66  61  84 S10       30.02S
ELKHART          N/A     64  58  81 SE8         N/A
GARDEN CITY    PTSUNNY   67  62  84 S9        30.01S
GREAT BEND     SUNNY     68  63  83 S8        30.01F
LIBERAL        SUNNY     70  63  78 SW8       30.04S
$$

KSZ066>073-081>083-090>101-041400-
SOUTHEAST KANSAS

CITY           SKY/WX    TMP DP  RH WIND       PRES   REMARKS
CHANUTE        SUNNY     70  63  78 VRB5      30.00R
COFFEYVILLE    SUNNY     71  66  84 E6        29.98S
HUTCHINSON     SUNNY     68  63  84 SE3       30.01R
MEDICINE LODGE   N/A     70  64  81 SE6       30.00R
NEWTON         SUNNY     66  59  77 SE8       30.02S
PARSONS        SUNNY     71  65  81 CALM      30.00R
WICHITA INTL   MOSUNNY   70  64  81 SE5       30.00R
WICHITA JABRA  SUNNY     67  64  90 SE5       30.00R
WINFIELD       SUNNY     71  65  81 E7        30.00S
$$

KSZ007>012-019>026-033>040-048>060-102>105-041400-
NORTHEAST KANSAS

CITY           SKY/WX    TMP DP  RH WIND       PRES   REMARKS
CONCORDIA      SUNNY     65  59  81 CALM      30.01R
EMPORIA        SUNNY     65  62  90 CALM      30.00S
LAWRENCE       SUNNY     64  61  90 CALM      30.01R FOG
MANHATTAN      SUNNY     64  61  90 CALM      30.00S
OLATHE IND     SUNNY     67  61  81 E5        30.02R
OLATHE EXE     SUNNY     66  61  84 E5        30.01R
SALINA         SUNNY     68  60  75 CALM      30.00S
TOPEKA BILLARD FOG       63  63 100 CALM      30.00S VSB 1/4
TOPEKA FORBES  SUNNY     66  61  84 CALM      30.00S
$$


USA.gov is the U.S. government's official web portal to all federal, state and local government web resources and services.